Location: Kawakawa
(35.3830°S, 174.0670°E)
Time: 15:47:16
(UTC+13:00)

Altair - Pass Details

Date: 12 December 2019
Orbit: 1502 x 1682 km, 47.2° (Epoch: 28 January)

Event Time Altitude Azimuth Distance (km) Brightness Sun altitude
Rises 16:40:24 0° 236° (WSW) 4,935 10.7 44.5°
Reaches altitude 10° 16:43:35 10° 238° (WSW) 3,954 10.5 43.8°
Maximum altitude 16:53:43 72° 319° (NW) 1,761 8.9 41.8°
Drops below altitude 10° 17:03:45 10° 41° (NE) 3,908 9.4 39.7°
Sets 17:06:52 0° 43° (NE) 4,874 9.8 39.1°
